[[{"header":{"parameterUnit":"m.s-1","parameterCategory":2,"la1":30.2991,"la2":30.254,"lo1":-89.0895,"lo2":-89.0444,"dy":0.0017,"dx":0.0017,"nx":28,"ny":28,"refTime":"2025-09-06T09:00:00:Z","depth":"0","parameterNumber":2,"parameterNumberName":"U-component_of_CURRENTS"},"data":[0,0,0,0,0,0,0,0,0,0,0,0,0,0,0,0,0,0,0,0,0,0,0,0,0,0,0,0,0,0,0,0,0,0,0,0,0,0,0,0,0,0,0,0,0,0,0,0,0,0,0,0,0,0,0,0,0,0,-0.2463,-0.2463,0,-0.2476,-0.2476,-0.2476,-0.2451,-0.2451,-0.245,-0.2449,-0.2417,-0.2417,-0.2417,0,0,0,0,0,0,0,0,0,0,0,0,0,-0.2416,-0.2417,-0.2463,-0.2463,-0.2464,-0.2476,-0.2476,-0.2476,-0.2452,-0.2451,-0.245,-0.2449,-0.2417,-0.2417,-0.2417,0,0,0,0,0,0,0,0,0,0,0,0,0,-0.2432,-0.2417,-0.2463,-0.2454,-0.2453,-0.2476,-0.2476,-0.2476,-0.2452,-0.2451,-0.245,-0.2449,-0.2417,-0.2417,-0.2417,-0.2435,0,0,-0.2416,-0.2415,0,0,0,0,0,0,0,0,-0.2431,-0.2434,-0.2455,-0.2455,-0.2454,-0.2462,-0.2447,-0.246,-0.2452,-0.2451,-0.2449,-0.2448,-0.2429,-0.2428,-0.2432,-0.2434,-0.2432,-0.2416,-0.2415,-0.2415,-0.2415,0,0,0,0,0,0,0,-0.243,-0.2433,-0.2467,-0.2455,-0.2455,-0.2449,-0.245,-0.245,-0.2444,-0.2451,-0.245,-0.2453,-0.2429,-0.2432,-0.2431,-0.2432,-0.2416,-0.2415,-0.2415,-0.2415,-0.2454,-0.2456,0,0,0,0,0,0,-0.2433,-0.2432,-0.2466,-0.2467,-0.2441,-0.245,-0.2451,-0.2459,-0.2445,-0.2443,-0.2454,-0.2452,-0.2433,-0.2431,-0.2429,-0.2434,-0.2415,-0.2415,-0.2415,-0.2453,-0.2455,-0.2456,0,0,0,0,0,0,-0.2432,-0.2436,-0.2466,-0.2451,-0.2454,-0.2452,-0.2462,-0.246,-0.246,-0.2448,-0.2444,-0.2454,-0.2432,-0.243,-0.2434,-0.2433,-0.2415,-0.2414,-0.2452,-0.2454,-0.2455,-0.2455,0,0,0,0,0,0,-0.2431,-0.2436,-0.2436,-0.2451,-0.2455,-0.2484,-0.2463,-0.2461,-0.2464,-0.2462,-0.2447,-0.2444,-0.2431,-0.2434,-0.2433,-0.2433,-0.2414,-0.245,-0.2453,-0.2455,-0.2453,-0.2456,-0.2459,0,0,0,0,0,-0.2429,-0.243,-0.2436,-0.244,-0.2458,-0.2485,-0.2487,-0.2481,-0.2465,-0.2474,-0.2463,-0.2444,-0.2449,-0.2435,-0.2434,-0.2433,-0.2449,-0.2452,-0.2455,-0.2452,-0.2456,-0.2459,0,0,0,0,0,0,-0.2404,-0.2428,-0.2435,-0.2442,-0.2467,-0.2482,-0.2481,-0.2484,-0.2483,-0.2473,-0.2457,-0.2454,-0.2459,-0.2456,-0.2441,-0.2456,-0.2447,-0.2449,-0.2445,-0.2449,-0.2452,-0.2418,-0.2414,0,0,0,0,0,-0.2403,-0.2406,-0.2441,-0.2444,-0.2459,-0.2472,-0.2479,-0.2484,-0.2488,-0.2486,-0.2478,-0.2472,-0.2473,-0.2467,-0.2471,-0.2476,-0.2458,-0.2478,-0.2481,-0.2484,-0.2458,-0.2447,-0.2446,-0.2465,-0.2465,-0.2465,0,0,-0.2388,-0.2404,-0.2403,-0.2438,-0.2451,-0.2463,-0.2473,-0.2488,-0.2487,-0.2483,-0.2472,-0.2483,-0.248,-0.2486,-0.2487,-0.2477,-0.2473,-0.2487,-0.2489,-0.2461,-0.245,-0.2447,-0.2445,-0.2467,-0.2467,-0.2467,0,0,-0.2354,-0.2385,-0.2374,-0.2402,-0.2433,-0.2454,-0.2461,-0.2488,-0.249,-0.2502,-0.2495,-0.2503,-0.2507,-0.25,-0.2497,-0.2521,-0.2494,-0.2533,-0.2508,-0.2499,-0.2496,-0.2493,-0.2477,-0.2473,-0.2527,-0.2527,-0.2527,0,-0.2332,-0.2334,-0.2376,-0.2381,-0.2397,-0.2448,-0.245,-0.2467,-0.2487,-0.2491,-0.2498,-0.2506,-0.2507,-0.2498,-0.2505,-0.2522,-0.2511,-0.249,-0.2498,-0.2495,-0.2492,-0.2477,-0.2472,-0.2528,-0.2528,-0.2528,-0.2528,0,-0.2289,-0.2303,-0.2305,-0.2327,-0.2355,-0.2373,-0.2417,-0.2439,-0.2458,-0.2472,-0.2485,-0.2498,-0.2498,-0.2511,-0.2508,-0.2495,-0.2493,-0.2506,-0.248,-0.2489,-0.2474,-0.2469,-0.2528,-0.2528,-0.2528,-0.2528,0,0,-0.2203,-0.2262,-0.226,-0.2279,-0.2335,-0.2358,-0.2374,-0.2408,-0.2416,-0.2443,-0.2442,-0.2454,-0.2471,-0.2469,-0.248,-0.2466,-0.2446,-0.247,-0.247,-0.2436,-0.2416,-0.2401,-0.2394,-0.2459,-0.2458,-0.2457,-0.2417,0,-0.2155,-0.2164,-0.2202,-0.2216,-0.2237,-0.2302,-0.2317,-0.2356,-0.2394,-0.2412,-0.2432,-0.2442,-0.2453,-0.2461,-0.2449,-0.2458,-0.2431,-0.2455,-0.2426,-0.2425,-0.2395,-0.2387,-0.2321,-0.2278,-0.2412,-0.2411,-0.241,0,-0.2091,-0.2116,-0.2123,-0.219,-0.2203,-0.2215,-0.2272,-0.2294,-0.234,-0.2367,-0.2384,-0.2411,-0.2406,-0.2418,-0.24,-0.2416,-0.2401,-0.2399,-0.2398,-0.237,-0.2399,-0.229,-0.2264,-0.2256,-0.2402,-0.2403,-0.2404,0,-0.2022,-0.2061,-0.2073,-0.2094,-0.2168,-0.2177,-0.2214,-0.227,-0.2296,-0.2336,-0.2359,-0.2369,-0.238,-0.2365,-0.2377,-0.2384,-0.2352,-0.237,-0.2332,-0.2331,-0.226,-0.2254,-0.22,-0.2324,-0.2324,-0.2325,-0.2325,0,-0.1967,-0.1973,-0.2042,-0.2052,-0.2064,-0.2132,-0.2148,-0.2192,-0.2248,-0.2278,-0.2326,-0.2348,-0.2365,-0.2368,-0.2361,-0.2334,-0.2341,-0.2307,-0.2313,-0.2262,-0.2257,-0.2236,-0.225,-0.2323,-0.2323,-0.2324,-0.2324,0,-0.1885,-0.1934,-0.195,-0.2015,-0.2033,-0.204,-0.2109,-0.2129,-0.2194,-0.2233,-0.2246,-0.232,-0.2334,-0.2344,-0.233,-0.2315,-0.2255,-0.2274,-0.2212,-0.2211,-0.2169,-0.2186,-0.2087,-0.2029,-0.2217,-0.2216,-0.2216,0,-0.1843,-0.1844,-0.1902,-0.1911,-0.1935,-0.1964,-0.199,-0.2078,-0.2113,-0.222,-0.2233,-0.2276,-0.2308,-0.2293,-0.2276,-0.2245,-0.2214,-0.2146,-0.2142,-0.2136,-0.2159,-0.2144,-0.2101,-0.2053,-0.2051,-0.2049,-0.2048,0,-0.1755,-0.1775,-0.1793,-0.1814,-0.1838,-0.1868,-0.1917,-0.1944,-0.2058,-0.211,-0.2185,-0.2223,-0.2253,-0.2225,-0.2196,-0.2157,-0.2096,-0.2113,-0.2115,-0.202,-0.1988,-0.1946,-0.2118,-0.2034,-0.2035,-0.2036,-0.2037,-0.2038,-0.1675,-0.1665,-0.1692,-0.1701,-0.1732,-0.1757,-0.1754,-0.184,-0.1895,-0.1984,-0.2087,-0.2154,-0.2171,-0.2144,-0.21,-0.2007,-0.2016,-0.1944,-0.1962,-0.1946,-0.1886,-0.2026,-0.1953,-0.1954,-0.1955,-0.1955,-0.1956,0,-0.157,-0.1575,-0.158,-0.1594,-0.1588,-0.1642,-0.1692,-0.1692,-0.1735,-0.1876,-0.1948,-0.2068,-0.203,-0.2032,-0.1972,-0.1889,-0.1815,-0.1824,-0.1782,-0.1743,-0.1868,-0.1859,-0.1751,-0.1751,-0.1751,-0.1751,-0.1751,-0.1752,-0.1516,-0.1483,-0.149,-0.1443,-0.1454,-0.1421,-0.1429,-0.1464,-0.1541,-0.1662,-0.18,-0.1946,-0.199,-0.2057,-0.1939,-0.1833,-0.1755,-0.1693,-0.1695,-0.1806,-0.1819,-0.1831,-0.1825,-0.1712,-0.1712,-0.1503,-0.1502,-0.1501]},{"header":{"parameterUnit":"m.s-1","parameterCategory":2,"la1":30.2991,"la2":30.254,"lo1":-89.0895,"lo2":-89.0444,"dy":0.0017,"dx":0.0017,"nx":28,"ny":28,"refTime":"2025-09-06T09:00:00:Z","depth":"0","parameterNumber":3,"parameterNumberName":"V-component_of_CURRENTS"},"data":[0,0,0,0,0,0,0,0,0,0,0,0,0,0,0,0,0,0,0,0,0,0,0,0,0,0,0,0,0,0,0,0,0,0,0,0,0,0,0,0,0,0,0,0,0,0,0,0,0,0,0,0,0,0,0,0,0,0,-0.0384,-0.0384,0,-0.0335,-0.0334,-0.0334,-0.0294,-0.0294,-0.0293,-0.0293,-0.0168,-0.0165,-0.0162,0,0,0,0,0,0,0,0,0,0,0,0,0,-0.0449,-0.0448,-0.0384,-0.0384,-0.0383,-0.0335,-0.0334,-0.0333,-0.0294,-0.0294,-0.0293,-0.0293,-0.0169,-0.0165,-0.0162,0,0,0,0,0,0,0,0,0,0,0,0,0,-0.0412,-0.0447,-0.0384,-0.0358,-0.0355,-0.0335,-0.0334,-0.0333,-0.0294,-0.0294,-0.0293,-0.0292,-0.017,-0.0165,-0.0161,-0.0145,0,0,-0.0147,-0.0145,0,0,0,0,0,0,0,0,-0.0414,-0.041,-0.0362,-0.036,-0.0356,-0.032,-0.0311,-0.0267,-0.0294,-0.0317,-0.0293,-0.0292,-0.0212,-0.0204,-0.0197,-0.0139,-0.0133,-0.0147,-0.0144,-0.0142,-0.0141,0,0,0,0,0,0,0,-0.0417,-0.0412,-0.0364,-0.0362,-0.0358,-0.035,-0.0344,-0.0303,-0.0267,-0.0315,-0.0312,-0.0307,-0.021,-0.0201,-0.0193,-0.0132,-0.0147,-0.0143,-0.014,-0.0139,-0.004,-0.004,0,0,0,0,0,0,-0.0424,-0.0414,-0.0366,-0.0363,-0.0385,-0.0349,-0.0343,-0.0332,-0.0269,-0.0259,-0.0308,-0.0305,-0.0209,-0.0199,-0.0189,-0.0154,-0.0142,-0.0138,-0.0136,-0.004,-0.004,-0.004,0,0,0,0,0,0,-0.0425,-0.042,-0.0368,-0.0388,-0.0381,-0.0349,-0.0337,-0.0331,-0.0322,-0.0264,-0.0253,-0.0305,-0.0208,-0.0195,-0.0154,-0.0149,-0.0136,-0.0132,-0.0039,-0.004,-0.004,-0.0092,0,0,0,0,0,0,-0.0427,-0.042,-0.0418,-0.0388,-0.038,-0.0364,-0.0338,-0.0331,-0.032,-0.0317,-0.0258,-0.0246,-0.0207,-0.0161,-0.0149,-0.0143,-0.0129,-0.0039,-0.0039,-0.004,-0.009,-0.0094,-0.0097,0,0,0,0,0,-0.043,-0.0426,-0.0418,-0.0412,-0.0376,-0.0365,-0.0361,-0.0336,-0.0321,-0.0324,-0.0279,-0.0247,-0.0153,-0.0157,-0.0144,-0.0136,-0.0039,-0.0039,-0.004,-0.0088,-0.0093,-0.0097,0,0,0,0,0,0,-0.0454,-0.0421,-0.0411,-0.0398,-0.0388,-0.0359,-0.0354,-0.0341,-0.031,-0.0299,-0.0246,-0.0231,-0.0196,-0.016,-0.0166,-0.0109,-0.0091,-0.0089,-0.0133,-0.0137,-0.014,-0.015,-0.0125,0,0,0,0,0,-0.0459,-0.0446,-0.0422,-0.0415,-0.0408,-0.0384,-0.0376,-0.0361,-0.033,-0.0317,-0.0277,-0.0229,-0.0187,-0.0158,-0.0121,-0.0085,-0.005,-0.0072,-0.0076,-0.0079,-0.0078,-0.0023,-0.0021,-0.004,-0.004,-0.004,0,0,-0.0467,-0.0447,-0.044,-0.0419,-0.0405,-0.0401,-0.0378,-0.0368,-0.0361,-0.0305,-0.0281,-0.0243,-0.0183,-0.0148,-0.0127,-0.0114,-0.0057,-0.0079,-0.0082,-0.0079,-0.0023,-0.0021,-0.0019,-0.004,-0.004,-0.004,0,0,-0.048,-0.0459,-0.0455,-0.0448,-0.043,-0.0415,-0.0416,-0.0392,-0.0376,-0.0353,-0.0309,-0.0267,-0.0211,-0.0163,-0.0131,-0.0128,-0.0083,-0.0121,-0.0135,-0.0082,-0.008,-0.0078,-0.0041,-0.0035,-0.0115,-0.0115,-0.0115,0,-0.0493,-0.0484,-0.0457,-0.0454,-0.0452,-0.0425,-0.0431,-0.041,-0.0378,-0.0362,-0.0352,-0.0263,-0.0214,-0.0155,-0.0156,-0.0134,-0.0107,-0.0125,-0.0087,-0.0084,-0.008,-0.0043,-0.0036,-0.0118,-0.0117,-0.0117,-0.0117,0,-0.0503,-0.0502,-0.05,-0.0486,-0.0481,-0.0482,-0.0455,-0.0445,-0.0424,-0.0399,-0.0352,-0.0289,-0.0234,-0.0214,-0.0182,-0.0134,-0.0125,-0.0105,-0.0079,-0.0082,-0.0042,-0.0034,-0.0121,-0.012,-0.012,-0.0119,0,0,-0.052,-0.051,-0.0511,-0.0521,-0.05,-0.0501,-0.0484,-0.0465,-0.0453,-0.0411,-0.0386,-0.0312,-0.0279,-0.0241,-0.0192,-0.0144,-0.0099,-0.0121,-0.0117,-0.0089,0.0003,0.0021,0.0033,-0.0076,-0.0075,-0.0074,0.0017,0,-0.0542,-0.0558,-0.0539,-0.0561,-0.0572,-0.0544,-0.0535,-0.0508,-0.0476,-0.0444,-0.0367,-0.0325,-0.0287,-0.0261,-0.0206,-0.0125,-0.0078,-0.0127,0.0006,0.001,0.0024,0.0044,0.0054,0.0137,0.0026,0.0027,0.0028,0,-0.056,-0.057,-0.0596,-0.0609,-0.061,-0.0612,-0.0597,-0.0586,-0.0523,-0.0495,-0.0432,-0.0375,-0.0288,-0.0263,-0.0121,-0.0158,-0.0086,-0.0024,-0.0019,0.0025,0.0045,0.0125,0.0157,0.0291,0.0042,0.0041,0.004,0,-0.0598,-0.0613,-0.064,-0.0643,-0.0644,-0.0647,-0.0644,-0.06,-0.0592,-0.0522,-0.0503,-0.0395,-0.0339,-0.0232,-0.0106,-0.0112,0.0043,0.0056,0.0141,0.0143,0.0192,0.0196,0.0369,0.0152,0.0152,0.0152,0.0151,0,-0.0633,-0.0655,-0.0661,-0.0678,-0.071,-0.069,-0.0704,-0.0681,-0.0641,-0.063,-0.0532,-0.0492,-0.033,-0.0222,-0.0112,0.0042,0.0044,0.0145,0.0174,0.0173,0.0173,0.0325,0.0376,0.0155,0.0154,0.0154,0.0153,0,-0.0671,-0.0674,-0.0711,-0.0724,-0.0731,-0.0753,-0.076,-0.0766,-0.0718,-0.0699,-0.0679,-0.0553,-0.0411,-0.0251,-0.0067,0.0036,0.0257,0.0229,0.0207,0.0232,0.0431,0.0477,0.0669,0.0722,0.0343,0.0344,0.0345,0,-0.0692,-0.0713,-0.0751,-0.0781,-0.079,-0.0817,-0.0837,-0.0809,-0.0814,-0.0739,-0.0734,-0.0589,-0.049,-0.0209,0.0003,0.0212,0.0308,0.0342,0.0341,0.0456,0.0529,0.0561,0.0593,0.0383,0.0385,0.0386,0.0386,0,-0.0731,-0.0742,-0.0773,-0.084,-0.0874,-0.0915,-0.0938,-0.0951,-0.0916,-0.0892,-0.0831,-0.0741,-0.0453,-0.02,0.0088,0.0217,0.0434,0.0368,0.0509,0.0596,0.0623,0.0682,0.0297,0.0395,0.0394,0.0393,0.0393,0.0393,-0.0755,-0.0791,-0.0837,-0.0899,-0.0949,-0.1006,-0.1042,-0.1057,-0.1068,-0.1031,-0.0919,-0.0778,-0.0369,0.0044,0.0199,0.0546,0.052,0.0649,0.0699,0.0725,0.0771,0.0392,0.0508,0.0508,0.0507,0.0507,0.0507,0,-0.0785,-0.083,-0.0896,-0.0972,-0.1045,-0.1053,-0.1107,-0.1139,-0.1166,-0.1094,-0.1021,-0.0607,-0.0205,0.018,0.0683,0.0873,0.0905,0.0968,0.103,0.1049,0.0745,0.0741,0.0886,0.0886,0.0886,0.0886,0.0885,0.0885,-0.0803,-0.0872,-0.0912,-0.1039,-0.1097,-0.1183,-0.1218,-0.1253,-0.1224,-0.1103,-0.0903,-0.073,-0.0122,0.0719,0.1188,0.1225,0.1361,0.1352,0.1428,0.1235,0.1209,0.1185,0.1196,0.1435,0.1435,0.1708,0.1711,0.1713]}],[{"header":{"parameterUnit":"m.s-1","parameterCategory":2,"la1":30.2991,"la2":30.254,"lo1":-89.0895,"lo2":-89.0444,"dy":0.0017,"dx":0.0017,"nx":28,"ny":28,"refTime":"2025-09-06T09:00:00:Z","depth":"2","parameterNumber":2,"parameterNumberName":"U-component_of_CURRENTS"},"data":[0,0,0,0,0,0,0,0,0,0,0,0,0,0,0,0,0,0,0,0,0,0,0,0,0,0,0,0,0,0,0,0,0,0,0,0,0,0,0,0,0,0,0,0,0,0,0,0,0,0,0,0,0,0,0,0,0,0,-0.2306,-0.2306,0,-0.2329,-0.2329,-0.233,-0.2326,-0.2326,-0.2325,-0.2325,-0.2306,-0.2306,-0.2306,0,0,0,0,0,0,0,0,0,0,0,0,0,-0.2266,-0.2267,-0.2306,-0.2306,-0.2307,-0.2329,-0.2329,-0.233,-0.2326,-0.2326,-0.2325,-0.2325,-0.2306,-0.2306,-0.2306,0,0,0,0,0,0,0,0,0,0,0,0,0,-0.2284,-0.2267,-0.2306,-0.2309,-0.2309,-0.2329,-0.2329,-0.233,-0.2326,-0.2326,-0.2325,-0.2325,-0.2306,-0.2306,-0.2305,-0.2312,0,0,-0.2304,-0.2304,0,0,0,0,0,0,0,0,-0.2283,-0.2286,-0.2308,-0.2309,-0.2309,-0.2325,-0.2308,-0.2322,-0.2326,-0.2318,-0.2325,-0.2325,-0.231,-0.2309,-0.2313,-0.2311,-0.231,-0.2304,-0.2304,-0.2304,-0.2304,0,0,0,0,0,0,0,-0.2282,-0.2285,-0.2314,-0.2308,-0.2309,-0.2312,-0.2313,-0.2311,-0.2314,-0.2319,-0.2319,-0.2324,-0.231,-0.2314,-0.2313,-0.231,-0.2304,-0.2304,-0.2304,-0.2304,-0.2346,-0.2347,0,0,0,0,0,0,-0.2282,-0.2284,-0.2313,-0.2315,-0.2297,-0.2313,-0.2315,-0.232,-0.2315,-0.2315,-0.2324,-0.2324,-0.2314,-0.2313,-0.2312,-0.2322,-0.2304,-0.2304,-0.2303,-0.2345,-0.2346,-0.2348,0,0,0,0,0,0,-0.2281,-0.2285,-0.2312,-0.2301,-0.2304,-0.2314,-0.2319,-0.232,-0.2328,-0.232,-0.2318,-0.2331,-0.2314,-0.2312,-0.2323,-0.2321,-0.2303,-0.2303,-0.2343,-0.2345,-0.2347,-0.234,0,0,0,0,0,0,-0.228,-0.2284,-0.2285,-0.2301,-0.2305,-0.2332,-0.232,-0.2321,-0.2332,-0.2331,-0.2325,-0.2323,-0.2314,-0.2324,-0.2323,-0.232,-0.2303,-0.2341,-0.2344,-0.2346,-0.2339,-0.2342,-0.2344,0,0,0,0,0,-0.2278,-0.2276,-0.2285,-0.2288,-0.2307,-0.2333,-0.2336,-0.234,-0.2333,-0.2343,-0.2342,-0.2323,-0.2339,-0.2324,-0.2323,-0.232,-0.234,-0.2343,-0.2346,-0.2338,-0.2341,-0.2344,0,0,0,0,0,0,-0.2257,-0.2276,-0.2286,-0.2289,-0.2317,-0.2333,-0.2333,-0.2345,-0.2352,-0.2345,-0.2337,-0.2336,-0.2347,-0.2344,-0.2328,-0.2345,-0.2338,-0.2341,-0.2332,-0.2335,-0.2338,-0.2306,-0.2302,0,0,0,0,0,-0.2256,-0.2253,-0.2288,-0.2289,-0.2302,-0.2321,-0.233,-0.2341,-0.2351,-0.2354,-0.2354,-0.2355,-0.2359,-0.2355,-0.2363,-0.2366,-0.2351,-0.2368,-0.2371,-0.2373,-0.235,-0.2342,-0.2341,-0.2358,-0.2358,-0.2358,0,0,-0.2242,-0.2255,-0.2251,-0.2284,-0.2296,-0.231,-0.2324,-0.2341,-0.2347,-0.235,-0.2351,-0.2367,-0.2367,-0.2375,-0.2379,-0.2368,-0.2366,-0.2377,-0.2378,-0.2354,-0.2345,-0.2343,-0.2341,-0.236,-0.2359,-0.2359,0,0,-0.2211,-0.2233,-0.2221,-0.2249,-0.228,-0.23,-0.231,-0.2341,-0.2349,-0.2367,-0.237,-0.2383,-0.2392,-0.2389,-0.2386,-0.2411,-0.2387,-0.2425,-0.2398,-0.2391,-0.2388,-0.2386,-0.2374,-0.2371,-0.2417,-0.2417,-0.2417,0,-0.2191,-0.2194,-0.2225,-0.2232,-0.2248,-0.2295,-0.2301,-0.2319,-0.235,-0.2358,-0.2366,-0.2388,-0.2391,-0.2387,-0.2394,-0.2411,-0.2404,-0.2379,-0.239,-0.2388,-0.2385,-0.2374,-0.2369,-0.2417,-0.2417,-0.2417,-0.2417,0,-0.2157,-0.2169,-0.2168,-0.2189,-0.2215,-0.2232,-0.2273,-0.2298,-0.232,-0.2338,-0.2359,-0.2374,-0.2383,-0.2395,-0.2393,-0.2385,-0.2386,-0.2399,-0.2371,-0.2382,-0.2371,-0.2366,-0.2417,-0.2417,-0.2417,-0.2417,0,0,-0.2079,-0.2131,-0.213,-0.2148,-0.22,-0.222,-0.2238,-0.2274,-0.2284,-0.2316,-0.2322,-0.2336,-0.2356,-0.2356,-0.237,-0.2356,-0.2338,-0.2362,-0.2362,-0.233,-0.2317,-0.2296,-0.229,-0.2352,-0.2351,-0.2351,-0.2319,0,-0.2041,-0.2052,-0.2087,-0.2103,-0.2121,-0.218,-0.2196,-0.2235,-0.2271,-0.2293,-0.2311,-0.2328,-0.2339,-0.2349,-0.2337,-0.235,-0.2326,-0.2345,-0.2328,-0.2327,-0.229,-0.2284,-0.2116,-0.2072,-0.2315,-0.2314,-0.2314,0,-0.1989,-0.2012,-0.2023,-0.2083,-0.2094,-0.2108,-0.2161,-0.2185,-0.223,-0.2257,-0.2278,-0.2305,-0.2303,-0.2312,-0.2301,-0.2315,-0.2302,-0.23,-0.23,-0.227,-0.2297,-0.2101,-0.2055,-0.2307,-0.2307,-0.2308,-0.2308,0,-0.1926,-0.1966,-0.1978,-0.1997,-0.2066,-0.2078,-0.2112,-0.2166,-0.2191,-0.2233,-0.2256,-0.2271,-0.2283,-0.2272,-0.2282,-0.229,-0.2263,-0.228,-0.224,-0.224,-0.2085,-0.2072,-0.224,-0.224,-0.2241,-0.2241,-0.2241,0,-0.1878,-0.1884,-0.195,-0.1959,-0.1973,-0.2037,-0.2054,-0.2097,-0.2151,-0.2179,-0.2229,-0.2249,-0.2271,-0.2276,-0.227,-0.2244,-0.2256,-0.2217,-0.2223,-0.2083,-0.2071,-0.2266,-0.227,-0.2239,-0.224,-0.224,-0.224,0,-0.18,-0.1847,-0.1862,-0.1926,-0.1944,-0.1951,-0.2017,-0.2037,-0.2101,-0.2138,-0.2151,-0.2223,-0.2239,-0.2252,-0.2243,-0.2228,-0.2209,-0.2189,-0.2025,-0.2012,-0.219,-0.2194,-0.2137,-0.2135,-0.2134,-0.2134,-0.2133,0,-0.176,-0.1761,-0.1818,-0.1827,-0.1851,-0.188,-0.1904,-0.1989,-0.2021,-0.2124,-0.2135,-0.2179,-0.2206,-0.2196,-0.2167,-0.2138,-0.2177,-0.1956,-0.1935,-0.2163,-0.2175,-0.2181,-0.2186,-0.173,-0.1726,-0.1723,-0.1721,0,-0.1677,-0.1696,-0.1713,-0.1734,-0.1757,-0.1784,-0.1831,-0.1856,-0.1964,-0.2011,-0.2079,-0.2114,-0.2132,-0.2045,-0.2015,-0.1969,-0.1953,-0.1892,-0.2148,-0.1801,-0.1783,-0.1795,-0.1812,-0.1692,-0.1695,-0.1697,-0.1698,-0.17,-0.16,-0.1591,-0.1616,-0.1625,-0.1655,-0.1676,-0.1671,-0.1748,-0.1795,-0.1861,-0.1963,-0.1971,-0.196,-0.186,-0.1771,-0.169,-0.1829,-0.1724,-0.1732,-0.1744,-0.172,-0.1703,-0.1592,-0.1595,-0.1596,-0.1598,-0.16,0,-0.1498,-0.1504,-0.1508,-0.1521,-0.1512,-0.1566,-0.161,-0.1596,-0.1626,-0.1719,-0.177,-0.1633,-0.1592,-0.1578,-0.1435,-0.1412,-0.1371,-0.1323,-0.1265,-0.1295,-0.1322,-0.1275,-0.103,-0.1028,-0.1026,-0.1024,0,0,-0.1446,-0.1412,-0.1418,-0.1371,-0.1383,-0.1346,-0.1351,-0.136,-0.1397,-0.1401,-0.142,-0.1562,-0.1582,-0.133,-0.125,-0.1125,-0.1195,-0.1061,-0.152,-0.1485,-0.1509,-0.1557,-0.1521,0,0,0,0,0]},{"header":{"parameterUnit":"m.s-1","parameterCategory":2,"la1":30.2991,"la2":30.254,"lo1":-89.0895,"lo2":-89.0444,"dy":0.0017,"dx":0.0017,"nx":28,"ny":28,"refTime":"2025-09-06T09:00:00:Z","depth":"2","parameterNumber":3,"parameterNumberName":"V-component_of_CURRENTS"},"data":[0,0,0,0,0,0,0,0,0,0,0,0,0,0,0,0,0,0,0,0,0,0,0,0,0,0,0,0,0,0,0,0,0,0,0,0,0,0,0,0,0,0,0,0,0,0,0,0,0,0,0,0,0,0,0,0,0,0,-0.0216,-0.0216,0,-0.0172,-0.0171,-0.017,-0.0144,-0.0144,-0.0144,-0.0143,-0.0029,-0.0026,-0.0023,0,0,0,0,0,0,0,0,0,0,0,0,0,-0.0281,-0.028,-0.0217,-0.0216,-0.0215,-0.0172,-0.0171,-0.017,-0.0144,-0.0144,-0.0143,-0.0143,-0.003,-0.0026,-0.0023,0,0,0,0,0,0,0,0,0,0,0,0,0,-0.0246,-0.028,-0.0217,-0.0197,-0.0195,-0.0172,-0.0171,-0.017,-0.0144,-0.0144,-0.0143,-0.0143,-0.0031,-0.0027,-0.0022,0.0002,0,0,-0.0009,-0.0007,0,0,0,0,0,0,0,0,-0.0248,-0.0244,-0.02,-0.0198,-0.0196,-0.0163,-0.0152,-0.0109,-0.0144,-0.0163,-0.0143,-0.0143,-0.0068,-0.006,-0.0053,0.0008,0.0013,-0.0008,-0.0006,-0.0004,-0.0002,0,0,0,0,0,0,0,-0.0251,-0.0246,-0.0198,-0.02,-0.0197,-0.0191,-0.0186,-0.0144,-0.0115,-0.0161,-0.0159,-0.0155,-0.0066,-0.0057,-0.005,0.0014,-0.0008,-0.0004,-0.0002,-0.0,0.0096,0.0096,0,0,0,0,0,0,-0.0257,-0.0248,-0.02,-0.0197,-0.0223,-0.019,-0.0184,-0.0174,-0.0117,-0.0109,-0.0155,-0.0154,-0.0065,-0.0055,-0.0045,-0.0018,-0.0004,0.0,0.0003,0.0096,0.0096,0.0096,0,0,0,0,0,0,-0.0258,-0.0253,-0.0202,-0.0222,-0.0215,-0.0189,-0.0177,-0.0173,-0.0169,-0.0113,-0.0103,-0.0156,-0.0064,-0.0052,-0.0014,-0.0013,0.0002,0.0006,0.0096,0.0096,0.0096,0.0039,0,0,0,0,0,0,-0.026,-0.0253,-0.0253,-0.0222,-0.0214,-0.0199,-0.0177,-0.0172,-0.0166,-0.0164,-0.011,-0.01,-0.0063,-0.0021,-0.001,-0.0007,0.001,0.0096,0.0096,0.0096,0.0041,0.0037,0.0034,0,0,0,0,0,-0.0262,-0.0261,-0.0253,-0.0248,-0.0213,-0.02,-0.0196,-0.0176,-0.0166,-0.0171,-0.0132,-0.0102,-0.0015,-0.0018,-0.0004,-0.0,0.0096,0.0096,0.0096,0.0043,0.0038,0.0034,0,0,0,0,0,0,-0.0293,-0.0258,-0.0248,-0.0238,-0.0226,-0.0196,-0.0194,-0.0183,-0.0157,-0.015,-0.01,-0.0087,-0.0056,-0.0021,-0.0025,0.0026,0.0045,0.0047,0.0,-0.0004,-0.0008,-0.0019,0.0014,0,0,0,0,0,-0.03,-0.0287,-0.026,-0.0255,-0.0248,-0.0223,-0.0217,-0.0204,-0.0175,-0.0164,-0.0129,-0.0086,-0.0046,-0.002,0.0015,0.0049,0.0083,0.0059,0.0055,0.0052,0.0051,0.0101,0.0102,0.0095,0.0095,0.0095,0,0,-0.0311,-0.029,-0.0284,-0.0261,-0.0246,-0.0243,-0.0219,-0.021,-0.0207,-0.0153,-0.0137,-0.01,-0.0043,-0.0011,0.0006,0.002,0.007,0.0051,0.0048,0.005,0.0101,0.0102,0.0102,0.0095,0.0095,0.0095,0,0,-0.033,-0.0308,-0.0307,-0.0297,-0.0279,-0.0262,-0.0263,-0.0238,-0.0226,-0.0205,-0.0166,-0.0128,-0.0075,-0.0032,-0.0001,-0.0002,0.0043,0.0006,-0.0013,0.0035,0.0036,0.0037,0.0072,0.0077,0.0011,0.001,0.001,0,-0.0348,-0.034,-0.0308,-0.0309,-0.0306,-0.0274,-0.0282,-0.0262,-0.0232,-0.0218,-0.0208,-0.0127,-0.0081,-0.0029,-0.0032,-0.0009,0.0018,-0.0001,0.003,0.0032,0.0034,0.007,0.0076,0.0008,0.0008,0.0008,0.0009,0,-0.0365,-0.0365,-0.0364,-0.0351,-0.0345,-0.0346,-0.0316,-0.0308,-0.0288,-0.0263,-0.0222,-0.0161,-0.0112,-0.0092,-0.0059,-0.002,-0.0008,0.0013,0.0039,0.0031,0.007,0.0077,0.0004,0.0005,0.0006,0.0006,0,0,-0.039,-0.038,-0.0381,-0.0391,-0.0368,-0.0368,-0.0356,-0.0336,-0.0327,-0.0288,-0.0269,-0.0198,-0.0166,-0.013,-0.0082,-0.0037,0.0001,-0.0011,-0.0008,0.0018,0.0095,0.0113,0.0124,0.0024,0.0025,0.0026,0.0112,0,-0.0419,-0.0438,-0.0419,-0.0442,-0.0452,-0.0421,-0.0416,-0.039,-0.0358,-0.033,-0.0256,-0.0218,-0.0178,-0.0154,-0.0103,-0.0023,0.0019,-0.0025,0.0103,0.0107,0.012,0.0133,0.011,0.0185,0.0119,0.0121,0.0122,0,-0.0443,-0.0455,-0.0483,-0.0494,-0.0494,-0.0499,-0.0484,-0.0475,-0.0416,-0.039,-0.0332,-0.0275,-0.0195,-0.0167,-0.0032,-0.0065,0.0006,0.0067,0.0072,0.0115,0.0139,0.0185,0.0202,0.0135,0.0134,0.0133,0.0132,0,-0.0484,-0.0501,-0.0528,-0.0531,-0.0532,-0.0537,-0.0534,-0.0493,-0.0486,-0.0423,-0.0404,-0.0304,-0.0251,-0.0148,-0.0022,-0.0026,0.012,0.0136,0.0219,0.022,0.0241,0.0242,0.0224,0.0224,0.0224,0.0224,0.0223,0,-0.0522,-0.0545,-0.0551,-0.0567,-0.0601,-0.0581,-0.0598,-0.0577,-0.054,-0.0532,-0.0438,-0.0401,-0.0245,-0.014,-0.0032,0.0118,0.0118,0.0219,0.0249,0.0219,0.0218,0.0207,0.0204,0.0227,0.0226,0.0225,0.0225,0,-0.0561,-0.0564,-0.0601,-0.0615,-0.0622,-0.0645,-0.0654,-0.0661,-0.0618,-0.0601,-0.0583,-0.0463,-0.0326,-0.0171,0.0007,0.0107,0.0246,0.0295,0.0243,0.0265,0.0314,0.0307,0.0401,0.0402,0.0404,0.0405,0.0406,0,-0.0582,-0.0603,-0.0641,-0.0671,-0.0681,-0.0709,-0.0729,-0.0705,-0.071,-0.064,-0.0636,-0.0498,-0.0402,-0.0131,0.007,0.0271,0.0274,0.0368,0.0363,0.0315,0.0335,0.0326,0.0317,0.0365,0.0365,0.0366,0.0366,0,-0.0621,-0.0632,-0.0663,-0.0729,-0.0764,-0.0804,-0.0828,-0.0842,-0.0808,-0.0786,-0.0728,-0.0642,-0.0369,-0.014,0.0135,0.0253,0.0336,0.0382,0.0364,0.0318,0.0288,0.0304,0.0296,0.037,0.0369,0.0369,0.0369,0.0369,-0.0645,-0.0681,-0.0726,-0.0788,-0.0837,-0.0892,-0.0926,-0.0939,-0.095,-0.0905,-0.0804,-0.0657,-0.0402,-0.0018,0.0185,0.0383,0.038,0.0437,0.0433,0.043,0.0405,0.0378,0.0472,0.0472,0.0472,0.0472,0.0473,0,-0.0674,-0.0719,-0.0784,-0.0858,-0.0927,-0.0939,-0.0989,-0.1009,-0.1031,-0.095,-0.0873,-0.0596,-0.0311,-0.0047,0.0267,0.0454,0.0443,0.0483,0.0435,0.0431,0.0428,0.0401,0.0467,0.0468,0.0468,0.0469,0,0,-0.0691,-0.0757,-0.0796,-0.0917,-0.0977,-0.1057,-0.1089,-0.1102,-0.1059,-0.0994,-0.087,-0.0663,-0.0323,-0.0101,0.0143,0.0309,0.0314,0.0324,0.0309,0.0218,0.0212,0.0386,0.0338,0,0,0,0,0]}],[{"header":{"parameterUnit":"m.s-1","parameterCategory":2,"la1":30.2991,"la2":30.254,"lo1":-89.0895,"lo2":-89.0444,"dy":0.0017,"dx":0.0017,"nx":28,"ny":28,"refTime":"2025-09-06T09:00:00:Z","depth":"4","parameterNumber":2,"parameterNumberName":"U-component_of_CURRENTS"},"data":[0,0,0,0,0,0,0,0,0,0,0,0,0,0,0,0,0,0,0,0,0,0,0,0,0,0,0,0,0,0,0,0,0,0,0,0,0,0,0,0,0,0,0,0,0,0,0,0,0,0,0,0,0,0,0,0,0,0,-0.1309,-0.1309,0,-0.1351,-0.1352,-0.1353,-0.1396,-0.1396,-0.1396,-0.1397,-0.1434,-0.1435,-0.1435,0,0,0,0,0,0,0,0,0,0,0,0,0,-0.1271,-0.1272,-0.1309,-0.1309,-0.1309,-0.1351,-0.1352,-0.1353,-0.1396,-0.1396,-0.1397,-0.1397,-0.1434,-0.1434,-0.1435,0,0,0,0,0,0,0,0,0,0,0,0,0,-0.13,-0.1272,-0.1309,-0.1334,-0.1337,-0.1351,-0.1352,-0.1353,-0.1396,-0.1396,-0.1397,-0.1397,-0.1433,-0.1434,-0.1435,-0.143,0,0,-0.1438,-0.1439,0,0,0,0,0,0,0,0,-0.1299,-0.1302,-0.133,-0.1332,-0.1335,-0.1367,-0.1352,-0.1378,-0.1395,-0.1376,-0.1397,-0.1397,-0.1409,-0.1412,-0.1422,-0.1432,-0.1433,-0.1438,-0.1439,-0.1439,-0.144,0,0,0,0,0,0,0,-0.1297,-0.13,-0.1328,-0.133,-0.1334,-0.1346,-0.1351,-0.1358,-0.139,-0.1377,-0.138,-0.1381,-0.1411,-0.1421,-0.1423,-0.1434,-0.1438,-0.1439,-0.144,-0.144,-0.1531,-0.1533,0,0,0,0,0,0,-0.1286,-0.1298,-0.1327,-0.1329,-0.1315,-0.1346,-0.1351,-0.1358,-0.139,-0.1395,-0.138,-0.1383,-0.1419,-0.1422,-0.1425,-0.1501,-0.1439,-0.144,-0.1441,-0.1529,-0.1532,-0.1534,0,0,0,0,0,0,-0.1285,-0.1288,-0.1325,-0.1312,-0.1318,-0.1345,-0.1353,-0.1358,-0.1393,-0.1392,-0.1398,-0.1412,-0.142,-0.1423,-0.1455,-0.15,-0.1441,-0.1442,-0.1527,-0.153,-0.1533,-0.1602,0,0,0,0,0,0,-0.1284,-0.1288,-0.1309,-0.1312,-0.1318,-0.1346,-0.1352,-0.1359,-0.139,-0.1395,-0.142,-0.1423,-0.142,-0.1454,-0.1456,-0.15,-0.1442,-0.1525,-0.1528,-0.1532,-0.1597,-0.1607,-0.1615,0,0,0,0,0,-0.1282,-0.1312,-0.131,-0.1314,-0.1339,-0.1346,-0.1351,-0.1374,-0.1391,-0.1408,-0.1431,-0.1424,-0.1478,-0.1456,-0.1458,-0.1503,-0.1523,-0.1527,-0.1531,-0.1593,-0.1605,-0.1615,0,0,0,0,0,0,-0.1303,-0.1318,-0.1317,-0.1348,-0.1348,-0.1353,-0.1387,-0.1388,-0.1421,-0.1442,-0.1438,-0.1443,-0.1485,-0.1485,-0.146,-0.1541,-0.1503,-0.1508,-0.1549,-0.156,-0.1569,-0.1564,-0.1443,0,0,0,0,0,-0.1314,-0.1349,-0.134,-0.1367,-0.1376,-0.1383,-0.1398,-0.1406,-0.1423,-0.1441,-0.1455,-0.148,-0.15,-0.1523,-0.1532,-0.1576,-0.1554,-0.1609,-0.1618,-0.1626,-0.1625,-0.1624,-0.1632,-0.1547,-0.1547,-0.1547,0,0,-0.1332,-0.1343,-0.1365,-0.1376,-0.1391,-0.1412,-0.1396,-0.1428,-0.1457,-0.1438,-0.1502,-0.1504,-0.1515,-0.1562,-0.1583,-0.1572,-0.1642,-0.1631,-0.1637,-0.1632,-0.1629,-0.1637,-0.1644,-0.155,-0.1549,-0.1549,0,0,-0.1368,-0.1394,-0.1426,-0.1436,-0.1454,-0.1459,-0.147,-0.1484,-0.1509,-0.1549,-0.1548,-0.1578,-0.1614,-0.1631,-0.1643,-0.1707,-0.1677,-0.1719,-0.1773,-0.1773,-0.1779,-0.1784,-0.1775,-0.1779,-0.1736,-0.1737,-0.1737,0,-0.1389,-0.1414,-0.1434,-0.146,-0.1475,-0.1483,-0.1505,-0.1537,-0.156,-0.1575,-0.1584,-0.1635,-0.165,-0.1695,-0.1727,-0.1728,-0.1713,-0.1731,-0.1782,-0.1787,-0.1791,-0.178,-0.1784,-0.174,-0.174,-0.174,-0.1739,0,-0.1427,-0.146,-0.1485,-0.1523,-0.1545,-0.157,-0.1596,-0.163,-0.166,-0.1672,-0.1719,-0.1736,-0.1759,-0.1783,-0.1781,-0.1826,-0.18,-0.1781,-0.1751,-0.1804,-0.1789,-0.1792,-0.1746,-0.1745,-0.1743,-0.1742,0,0,-0.1425,-0.1497,-0.1504,-0.1523,-0.1576,-0.1588,-0.1658,-0.1688,-0.172,-0.1766,-0.1794,-0.1856,-0.1849,-0.1863,-0.1864,-0.1883,-0.1914,-0.1856,-0.1854,-0.1839,-0.1903,-0.1792,-0.1783,-0.1898,-0.1899,-0.1899,-0.1883,0,-0.1438,-0.1488,-0.1525,-0.1578,-0.16,-0.1643,-0.1695,-0.1737,-0.1774,-0.1809,-0.1845,-0.1874,-0.1887,-0.1895,-0.1922,-0.1904,-0.1921,-0.1919,-0.1861,-0.186,-0.1747,-0.1783,-0.1902,-0.1884,-0.1885,-0.1885,-0.1885,0,-0.1435,-0.1472,-0.152,-0.1583,-0.1598,-0.1641,-0.1702,-0.1747,-0.181,-0.1838,-0.1881,-0.1893,-0.1942,-0.1934,-0.1955,-0.195,-0.1937,-0.1928,-0.1926,-0.1796,-0.1752,-0.182,-0.1888,-0.1888,-0.1888,-0.1888,-0.1888,0,-0.138,-0.1457,-0.1492,-0.1517,-0.16,-0.1636,-0.1682,-0.1751,-0.1784,-0.1848,-0.1868,-0.1918,-0.1936,-0.1944,-0.1949,-0.1949,-0.1947,-0.1938,-0.1828,-0.182,-0.1893,-0.1887,-0.1944,-0.1944,-0.1944,-0.1944,-0.1944,0,-0.1347,-0.1377,-0.1474,-0.1492,-0.1536,-0.1608,-0.1654,-0.1708,-0.1775,-0.1803,-0.1872,-0.1889,-0.1939,-0.1947,-0.1947,-0.189,-0.1947,-0.1833,-0.1807,-0.1924,-0.1922,-0.1894,-0.1889,-0.1944,-0.1944,-0.1944,-0.1944,0,-0.1268,-0.1335,-0.1379,-0.1477,-0.1509,-0.1538,-0.1632,-0.166,-0.1737,-0.1775,-0.1795,-0.1868,-0.188,-0.1908,-0.1912,-0.1866,-0.1834,-0.1798,-0.1921,-0.1902,-0.1708,-0.1707,-0.1668,-0.1664,-0.1661,-0.1658,-0.1655,0,-0.1227,-0.1244,-0.135,-0.1378,-0.1426,-0.1487,-0.1526,-0.1625,-0.1651,-0.1749,-0.1749,-0.1796,-0.1831,-0.1741,-0.1793,-0.1766,-0.1752,-0.1719,-0.172,-0.1701,-0.168,-0.1684,-0.1687,-0.165,-0.1649,-0.1648,-0.1647,0,-0.1145,-0.1195,-0.1234,-0.1292,-0.1344,-0.1389,-0.1454,-0.1462,-0.1567,-0.1654,-0.1652,-0.1656,-0.166,-0.1665,-0.1647,-0.1636,-0.1732,-0.1683,-0.169,-0.1691,-0.1678,-0.1662,-0.1669,-0.1635,-0.1637,-0.1638,-0.1639,0,-0.1082,-0.109,-0.115,-0.1187,-0.125,-0.127,-0.1321,-0.1355,-0.1395,-0.151,-0.1508,-0.1569,-0.1641,-0.1596,-0.159,-0.1559,-0.1543,-0.1494,-0.1511,-0.1524,-0.1486,-0.145,-0.131,0,0,0,0,0,-0.1012,-0.1012,-0.1041,-0.108,-0.1138,-0.1174,-0.1261,-0.1317,-0.1424,-0.1382,-0.144,-0.1443,-0.1435,-0.1471,-0.141,-0.1531,-0.155,-0.1454,-0.1503,-0.1569,-0.1583,-0.1552,0,0,0,0,0,0,-0.0966,-0.0989,-0.1001,-0.0979,-0.0988,-0.1039,-0.1093,-0.1171,-0.1155,-0.1268,-0.1267,-0.1352,-0.1361,-0.1441,-0.1377,-0.1387,-0.1388,-0.15,-0.1496,-0.1561,-0.1573,-0.1585,-0.1558,0,0,0,0,0]},{"header":{"parameterUnit":"m.s-1","parameterCategory":2,"la1":30.2991,"la2":30.254,"lo1":-89.0895,"lo2":-89.0444,"dy":0.0017,"dx":0.0017,"nx":28,"ny":28,"refTime":"2025-09-06T09:00:00:Z","depth":"4","parameterNumber":3,"parameterNumberName":"V-component_of_CURRENTS"},"data":[0,0,0,0,0,0,0,0,0,0,0,0,0,0,0,0,0,0,0,0,0,0,0,0,0,0,0,0,0,0,0,0,0,0,0,0,0,0,0,0,0,0,0,0,0,0,0,0,0,0,0,0,0,0,0,0,0,0,-0.0001,-0.0001,0,0.0032,0.0033,0.0033,0.0058,0.0058,0.0058,0.0059,0.0133,0.0135,0.0137,0,0,0,0,0,0,0,0,0,0,0,0,0,-0.0035,-0.0035,-0.0001,-0.0001,-0.0,0.0032,0.0033,0.0033,0.0058,0.0058,0.0058,0.0059,0.0132,0.0135,0.0137,0,0,0,0,0,0,0,0,0,0,0,0,0,-0.0013,-0.0034,-0.0001,0.0016,0.0018,0.0032,0.0033,0.0033,0.0058,0.0058,0.0058,0.0059,0.0132,0.0134,0.0137,0.0148,0,0,0.0145,0.0146,0,0,0,0,0,0,0,0,-0.0014,-0.0011,0.0013,0.0015,0.0017,0.0041,0.0048,0.0073,0.0058,0.0043,0.0059,0.0059,0.0106,0.011,0.0116,0.0151,0.0154,0.0145,0.0147,0.0148,0.0149,0,0,0,0,0,0,0,-0.0016,-0.0013,0.0012,0.0013,0.0016,0.0024,0.0028,0.0053,0.0073,0.0044,0.0046,0.0049,0.0107,0.0113,0.0118,0.0155,0.0145,0.0148,0.0149,0.0151,0.0205,0.0205,0,0,0,0,0,0,-0.0021,-0.0014,0.0011,0.0013,0.0001,0.0025,0.0029,0.0033,0.0072,0.0078,0.0049,0.005,0.0108,0.0115,0.0121,0.0128,0.0148,0.0151,0.0152,0.0206,0.0205,0.0205,0,0,0,0,0,0,-0.0022,-0.0019,0.001,0.0,0.0004,0.0025,0.003,0.0034,0.004,0.0075,0.0082,0.0052,0.0109,0.0117,0.0143,0.0131,0.0152,0.0154,0.0206,0.0206,0.0205,0.0147,0,0,0,0,0,0,-0.0023,-0.0019,-0.0024,-0.0,0.0005,0.0014,0.003,0.0034,0.0042,0.0044,0.008,0.0087,0.011,0.0139,0.0146,0.0135,0.0157,0.0206,0.0206,0.0205,0.0149,0.0145,0.0141,0,0,0,0,0,-0.0024,-0.0033,-0.0024,-0.0021,-0.0,0.0014,0.0017,0.0033,0.0041,0.0041,0.0068,0.0086,0.0142,0.0141,0.0149,0.0139,0.0206,0.0206,0.0205,0.0151,0.0146,0.0141,0,0,0,0,0,0,-0.005,-0.003,-0.002,-0.0022,-0.0006,0.0018,0.0015,0.003,0.005,0.0052,0.0088,0.0097,0.0113,0.0137,0.0136,0.0155,0.0175,0.0177,0.0131,0.0127,0.0123,0.0109,0.0159,0,0,0,0,0,-0.0058,-0.0062,-0.0035,-0.0039,-0.0032,-0.0008,-0.0002,0.0012,0.0034,0.0043,0.0067,0.0095,0.0118,0.0131,0.0155,0.0168,0.0196,0.0167,0.0163,0.0159,0.0154,0.0189,0.0187,0.0204,0.0204,0.0204,0,0,-0.0072,-0.0061,-0.0064,-0.0046,-0.0034,-0.0035,-0.0004,0.0003,0.0,0.0049,0.0051,0.0083,0.0119,0.0131,0.014,0.015,0.0169,0.0159,0.0155,0.0152,0.0188,0.0187,0.0185,0.0204,0.0204,0.0204,0,0,-0.0103,-0.0089,-0.0102,-0.0091,-0.0074,-0.0058,-0.0057,-0.0031,-0.0021,-0.0008,0.0024,0.0051,0.0082,0.0106,0.0122,0.0113,0.0146,0.0118,0.0086,0.0119,0.0118,0.0117,0.0147,0.015,0.0115,0.0115,0.0115,0,-0.0123,-0.0129,-0.0104,-0.0112,-0.0111,-0.0072,-0.0083,-0.0069,-0.0039,-0.003,-0.0016,0.0036,0.0068,0.0088,0.0083,0.0103,0.0126,0.0099,0.0113,0.0113,0.0113,0.0144,0.0148,0.0112,0.0112,0.0113,0.0113,0,-0.0158,-0.0166,-0.0172,-0.0171,-0.0166,-0.0168,-0.0143,-0.0135,-0.0115,-0.0094,-0.0068,-0.002,0.0013,0.0025,0.0051,0.0066,0.0084,0.0103,0.0122,0.0108,0.0142,0.0146,0.0108,0.0109,0.011,0.011,0,0,-0.0196,-0.0199,-0.0201,-0.0211,-0.0196,-0.0195,-0.02,-0.0185,-0.0185,-0.015,-0.0143,-0.0097,-0.0061,-0.004,0.0001,0.0031,0.0055,0.0061,0.0064,0.0084,0.0125,0.012,0.0125,0.0075,0.0076,0.0076,0.0147,0,-0.0231,-0.0261,-0.0251,-0.0282,-0.0292,-0.0265,-0.0274,-0.0256,-0.0229,-0.0213,-0.0155,-0.013,-0.0089,-0.007,-0.0035,0.0037,0.0064,0.0034,0.0142,0.0145,0.0136,0.0129,0.0078,0.015,0.0152,0.0152,0.0153,0,-0.0263,-0.028,-0.0316,-0.0333,-0.0335,-0.0349,-0.0347,-0.0347,-0.031,-0.0288,-0.0247,-0.0197,-0.0142,-0.0107,-0.0001,-0.0023,0.0041,0.0095,0.0099,0.0117,0.0147,0.017,0.0162,0.0161,0.016,0.016,0.0159,0,-0.0293,-0.0323,-0.0354,-0.036,-0.0373,-0.0387,-0.0392,-0.037,-0.0371,-0.033,-0.0318,-0.0244,-0.0201,-0.0116,-0.0001,0.0,0.0116,0.0135,0.0189,0.0189,0.0199,0.02,0.02,0.02,0.02,0.02,0.02,0,-0.0324,-0.035,-0.0374,-0.0391,-0.0432,-0.0425,-0.0454,-0.0444,-0.0428,-0.0427,-0.0357,-0.033,-0.0201,-0.0116,-0.0017,0.0099,0.0107,0.018,0.0205,0.0173,0.017,0.0203,0.0202,0.0202,0.0202,0.0201,0.0201,0,-0.0345,-0.0359,-0.0401,-0.0432,-0.0447,-0.0475,-0.0503,-0.0517,-0.0495,-0.049,-0.0479,-0.0388,-0.0275,-0.0146,0.0003,0.0077,0.019,0.0227,0.0179,0.0202,0.0245,0.0241,0.0292,0.0292,0.0292,0.0293,0.0293,0,-0.0354,-0.0378,-0.0434,-0.0468,-0.0487,-0.0527,-0.0555,-0.0552,-0.0561,-0.0522,-0.0518,-0.0415,-0.0341,-0.0136,-0.0001,0.0179,0.0204,0.0259,0.0253,0.0233,0.0254,0.0249,0.0244,0.0293,0.0293,0.0293,0.0294,0,-0.0374,-0.0396,-0.0431,-0.0504,-0.0548,-0.0596,-0.063,-0.0641,-0.0628,-0.061,-0.0544,-0.0432,-0.0305,-0.0141,-0.0002,0.0128,0.0222,0.0262,0.0263,0.0257,0.0236,0.0255,0.025,0.0295,0.0294,0.0294,0.0294,0,-0.0384,-0.0417,-0.0469,-0.0531,-0.0595,-0.0646,-0.0661,-0.0664,-0.0665,-0.0613,-0.059,-0.0447,-0.036,-0.0167,-0.0038,0.0087,0.012,0.0158,0.0164,0.0165,0.0107,0.006,0.0082,0,0,0,0,0,-0.0388,-0.043,-0.0495,-0.0564,-0.0629,-0.0666,-0.0704,-0.0707,-0.0692,-0.0653,-0.0621,-0.0501,-0.0299,-0.0206,-0.0082,-0.0034,0.0138,0.0115,0.0183,0.03,0.0299,0.0252,0,0,0,0,0,0,-0.0394,-0.0453,-0.0492,-0.0577,-0.063,-0.0698,-0.0724,-0.0716,-0.0686,-0.0652,-0.0543,-0.0478,-0.028,-0.0372,-0.0082,-0.0043,0.0016,0.0214,0.0216,0.0301,0.03,0.0299,0.025,0,0,0,0,0]}]]